Kodiak, AK

3:58 AM AKDT on July 29, 2017 (GMT -0800)
Kodiak

Weather History for PADQ - January, 2012

Change the Weather History Date:

Wednesday, January 11, 2012

  Actual Average Record
Temperature  
Mean Temperature 33 °F 31 °F  
Max Temperature 45 °F 35 °F 50 °F (1937)
Min Temperature 21 °F 26 °F 6 °F (1972)
Degree Days  
Heating Degree Days 32 34  
Month to date heating degree days 433 374  
Since 1 July heating degree days 4454 4217  
Cooling Degree Days 0 0  
Month to date cooling degree days 0 0  
Year to date cooling degree days 0 0  
Moisture  
Dew Point 28 °F    
Average Humidity 0    
Maximum Humidity 0    
Minimum Humidity 0    
Precipitation  
Precipitation 0.14 in 0.27 in 1.22 in (1975)
Month to date precipitation 3.23 3.07  
Year to date precipitation 3.23 3.07  
Snow  
Snow 0.70 in 0.40 in 8.60 in (1975)
Month to date snowfall 26.4 4.1  
Since 1 July snowfall 62.9 25.4  
Snow Depth 12.00 in    
Sea Level Pressure  
Sea Level Pressure 29.45 in    
Wind  
Wind Speed 13 mph (NW)    
Max Wind Speed 31 mph    
Max Gust Speed 39 mph    
Visibility 7 miles    
Events Rain , Snow    
T = Trace of Precipitation, MM = Missing Value Source: NWS Daily Summary

Daily Weather History Graph

Daily Weather History Graph

Search for Another Location

Airport or City:

Trip Planner

Search our weather history database for the weather conditions in past years. The results will help you decide how hot, cold, wet, or windy it might be!

Date:

Astronomy

Jan. 11, 2012 Rise Set
Actual Time 9:46 AM AKST 4:49 PM AKST
Civil Twilight 8:57 AM AKST 5:38 PM AKST
Nautical Twilight 8:07 AM AKST 6:28 PM AKST
Astronomical Twilight 7:20 AM AKST 7:15 PM AKST
Moon 8:51 PM AKST (1/11) 10:19 AM AKST (1/11)
Length of Visible Light 8h 40m
Length of Day
7h 02m
Waning Gibbous, 93% of the Moon is Illuminated
Jan 11
Waning Gibbous
Jan 16
Last Quarter
Jan 22
New
Jan 30
First Quarter
Feb 7
Full

Hourly Weather History & Observations

Time (AKST) Temp. Windchill Dew Point Humidity Pressure Visibility Wind Dir Wind Speed Gust Speed Precip Events Conditions
12:09 AM 44.6 °F - 33.8 °F 66% 29.41 in 10.0 mi Calm Calm - 0.01 in   Overcast
12:35 AM 39.2 °F - 33.8 °F 81% 29.42 in 9.0 mi Calm Calm - 0.01 in   Overcast
12:53 AM 42.1 °F 39.2 °F 34.0 °F 73% 29.42 in 5.0 mi NE 4.6 mph - 0.01 in Rain Light Rain
1:53 AM 41.0 °F 39.0 °F 36.0 °F 82% 29.42 in 8.0 mi ENE 3.5 mph - 0.03 in Rain Light Rain
3:53 AM 39.9 °F 33.4 °F 35.1 °F 83% 29.41 in 9.0 mi SE 10.4 mph - N/A   Mostly Cloudy
4:34 AM 41.0 °F 39.0 °F 33.8 °F 76% 29.41 in 9.0 mi Variable 3.5 mph - 0.01 in Rain Light Rain
4:53 AM 42.1 °F 39.2 °F 36.0 °F 79% 29.40 in 9.0 mi ESE 4.6 mph - 0.01 in Rain Light Rain
5:53 AM 41.0 °F 39.0 °F 34.0 °F 76% 29.40 in 9.0 mi Variable 3.5 mph - 0.00 in Rain Light Rain
6:53 AM 39.0 °F 34.8 °F 34.0 °F 82% 29.39 in 9.0 mi NE 5.8 mph - 0.00 in Rain Light Rain
7:53 AM 39.0 °F 35.7 °F 34.0 °F 82% 29.39 in 9.0 mi NNE 4.6 mph - 0.00 in Rain Light Rain
8:53 AM 37.2 °F - 34.0 °F 88% 29.40 in 7.0 mi Calm Calm - 0.00 in   Overcast
9:53 AM 35.1 °F 32.2 °F 33.1 °F 92% 29.40 in 7.0 mi WNW 3.5 mph - 0.00 in Rain Light Rain
10:53 AM 35.1 °F 29.3 °F 34.0 °F 96% 29.41 in 7.0 mi NW 6.9 mph - 0.02 in Rain Light Rain
11:53 AM 33.8 °F 24.3 °F 31.1 °F 90% 29.42 in 2.0 mi WNW 13.8 mph - 0.01 in Snow Light Snow
12:53 PM 32.9 °F 21.6 °F 32.2 °F 97% 29.44 in 2.0 mi WNW 18.4 mph 27.6 mph 0.02 in Snow Light Snow
1:53 PM 31.1 °F 20.1 °F 29.5 °F 94% 29.44 in 3.0 mi WNW 16.1 mph - 0.01 in Snow Light Snow
2:53 PM 31.1 °F 20.5 °F 28.6 °F 90% 29.45 in 6.0 mi WNW 15.0 mph 25.3 mph 0.00 in Snow Light Snow
3:53 PM 29.8 °F 16.6 °F 25.0 °F 82% 29.46 in 9.0 mi WNW 21.9 mph 29.9 mph 0.00 in   Overcast
4:53 PM 28.9 °F 16.9 °F 24.1 °F 82% 29.48 in 8.0 mi NW 17.3 mph 26.5 mph 0.00 in Snow Light Snow
5:53 PM 28.2 °F 15.2 °F 23.0 °F 81% 29.49 in 10.0 mi WNW 19.6 mph 29.9 mph 0.00 in   Overcast
6:53 PM 28.9 °F 15.8 °F 19.0 °F 67% 29.51 in 6.0 mi WNW 20.7 mph 33.4 mph 0.00 in Snow Light Snow
7:53 PM 26.6 °F 12.0 °F 19.0 °F 73% 29.53 in 10.0 mi WNW 23.0 mph 32.2 mph 0.00 in Snow Light Snow
8:53 PM 23.9 °F 7.5 °F 17.1 °F 75% 29.55 in 4.0 mi WNW 26.5 mph 34.5 mph 0.00 in Snow Light Snow
9:53 PM 23.5 °F 9.0 °F 15.1 °F 70% 29.56 in 4.0 mi WNW 19.6 mph 28.8 mph 0.00 in Snow Light Snow
10:53 PM 22.8 °F 6.7 °F 12.0 °F 63% 29.58 in 10.0 mi WNW 24.2 mph 33.4 mph 0.00 in   Overcast
11:53 PM 21.4 °F 6.2 °F 9.0 °F 59% 29.60 in 10.0 mi WNW 19.6 mph 32.2 mph N/A   Mostly Cloudy